Погода в Соловьевске

Погода в Соловьевске : погода сейчас, прогноз погоды и архив. Всё, что Вы хотите узнать о погоде в Соловьевске!

Поиск расширенной информации на нашем сайте:

Другие новости

Новости СМИ2

Главная страница сайта

Новости сайта

03.07.2017

Напоминаем, что на нашем специализированном сайте Метеоцентр.Азия вы можете получить высокодетализированные автоматические прогнозы погоды по пунктам России, СНГ и мира в авиационном формате (включающие направление и скорость ветра, видимость, явления погоды, количество и форму облачности, нижнюю и верхнюю границу облачности).


Погода в Соловьевске - сегодня

Время (UTC), дата Ветер
(°,м/с) 
Видим.   Явления Облачность Т
(°С)
Тd
(°С)
f(%) Тe
(°С)
Pmin
(гПа)
dP
(гПа)
Po
(мм)
O2
(г/м3)
Тmin Tmax R s Состояние
почвы
09 19.07.17 280 (З) 20000 м    6/4 1000 м верхняя 
[Sc diur, vesp|Ci sp]
+27.5 +8.1 29 +28  1001.4  -1.3  701  255           
18 19.07.17 300 (СЗ) 20000 м  {ливн. осадки}  10/5 600 м кучево-дожд., средняя, верхняя 
[Cb cap|Ac trans|Ci sp]
+16.8 +15.1 90 +29  1004.4  -0.2  701  263           
21 19.07.17 110 (В) 20000 м    10/5 600 м кучево-дожд., средняя, верхняя 
[Cb cap|Ac trans|Ci sp]
+16.7 +12.8 78 +25  1004.4  -0.1  701  264           
03 20.07.17 010 (С) 20000 м  {гроза}  3/1 1000 м верхняя 
[Cu hum|Ci sp]
+23.9 +13.6 52 +32  1003.5  -0.1  701  257           
09 20.07.17 030 (СВ) 5{10}  20000 м    10/4 600 м кучево-дожд., средняя, верхняя 
[Cb cap|Ac trans|Ci sp]
+23.6 +12.7 50 +30  1004.2  0.7  702  258           
15 20.07.17 050 (СВ) 20000 м    4/1 1000 м верхняя 
[Sc diur, vesp|Ci sp]
+17.6 +13 74 +25  1008.1  1.3  704  264           
18 20.07.17 010 (С) 20000 м    ясно 
+14.6 +12.7 88 +22  1009.7  0.8  704  267           
21 20.07.17 090 (В) 20000 м    3/0 верхняя 
[Ci sp]
+12.1 +11.5 96 +18  1011  0.6  705  270           
03 21.07.17 130 (ЮВ) 20000 м    6/1 1000 м средняя, верхняя 
[Sc diur, vesp|Ac trans|Ci sp]
+24.7 +9.2 37 +26  1007.7  -0.6  704  259           
15 21.07.17 050 (СВ) 2{12}  20000 м    10/4 600 м кучево-дожд., верхняя 
[Cb cap|Ci sp]
+16 +13.9 87 +25  1008.2  1.5  703  265           
18 21.07.17 тихо ()   20000 м    8/3 1000 м верхняя 
[Sc diur, vesp|Ci sp]
+13.7 +13.1 96 +21  1009.6  0.7  704  267           
21 21.07.17 230 (ЮЗ) 0050 м  туман  ясно 
+12 +11.8 99 +18  1009.9  -0.1  704  269           
09 22.07.17 320 (СЗ) 5{11}  20000 м    10/6 600 м кучево-дожд., верхняя 
[Cb cap|Ci sp]
+25.2 +9.9 38 +28  1004.6  -0.6  702  257           
15 22.07.17 220 (ЮЗ) 20000 м    10/4 600 м кучево-дожд., средняя, верхняя 
[Cb cap|Ac trans|Ci sp]
+19 +16.1 83 +34  1006  0.2  702  261           
18 22.07.17 270 (З) 20000 м    10/4 600 м кучево-дожд., средняя, верхняя 
[Cb cap|Ac trans|Ci sp]
+16.8 +12.5 76 +24  1006.2  -0.4  702  264           
21 22.07.17 280 (З) 20000 м    6/4 600 м кучево-дожд., верхняя 
[Cb cap|Ci sp]
+14.4 +11.8 84 +20  1007.2  0.3  702  266           
03 23.07.17 360 (С) 20000 м    5/4 1000 м верхняя 
[Cu hum|Ci sp]
+21.6 +12.7 57 +28  1006.4  0.1  703  260           
09 23.07.17 330 (СЗ) 3{10}  20000 м    8/4 1000 м средняя, верхняя 
[Sc diur, vesp|Ac trans|Ci sp]
+20.2 +12.6 62 +27  1007.2  0.4  703  261           
15 23.07.17 340 (С) 2{10}  20000 м    8/4 1000 м верхняя 
[Sc diur, vesp|Ci sp]
+15.1 +12.2 83 +22  1011.4  1.4  705  267           
18 23.07.17 330 (СЗ) 20000 м    4/0 верхняя 
[Ci sp]
+11.3 +10.5 95 +15  1013.2  0.7  706  271           
21 23.07.17 тихо ()   20000 м    3/0 верхняя 
[Ci sp]
+9.7 +9.1 96 +11  1013.9  0.3  706  273           
03 24.07.17 300 (СЗ) 20000 м    3/3 1000 м 
[Cu hum]
+20.8 +6.1 38 +21  1011.5  -0.7  706  263           
09 24.07.17 260 (З) 20000 м    8/5 1000 м верхняя 
[Sc diur, vesp|Ci sp]
+23.4 +4.6 29 +23  1008.3  -1  705  261           
15 24.07.17 190 (Ю) 20000 м    4/3 1000 м верхняя 
[Sc diur, vesp|Ci sp]
+15.2 +8.9 66 +18  1010.5  0.6  705  267           
18 24.07.17 190 (Ю) 20000 м    3/3 1000 м верхняя 
[Sc diur, vesp|Ci sp]
+13.8 +8.7 71 +15  1010.8  705  269           
Время (UTC), дата Ветер
(°,м/с) 
Видим.   Явления Облачность Т
(°С)
Тd
(°С)
f(%) Тe
(°С)
Pmin
(гПа)
dP
(гПа)
Po
(мм)
O2
(г/м3)
Тmin Tmax R s Состояние
почвы

Для получения пояснительной информации подведите курсор к названию столбца.

ПОГОДА в Соловьевске - архив

Всё, что Вы хотите узнать о погоде в Соловьевске - удобно и подробно!

Выберите нужную дату (начиная с 1 января 2015* года) и нажмите кнопку "Найти".
Будут отображены архивные сводки погоды по пункту Соловьевск, начиная с указанной даты.


Отображать данные в формате CSV (для использования в таблицах Excel)


Внимание! Наш архив погоды предназначен исключительно для личного некоммерческого использования в познавательных целях. Если Вам необходимы официальные справки о состоянии погоды (для производственных, юридических, коммерческих и т.п. целей), обращайтесь в органы Росгидромета.

*Примечание: данная дата относится к архиву по метеостанциям СССР (Россия, СНГ, Балтия).
Архив по метеостанциям Зарубежной Европы и Азии (кроме Китая) хранится 10 дней, по другим регионам земного шара (Китай, Африка, Америка, Австралия, Океания) - 1 день.

Соловьевск - район местоположения метеостанции


Название, широта, долгота, высота метеостанции:
Соловьевск 49.9°ш. 115.8°д. 623 м над ур. моря [Российская Федерация]

Дополнительная информация

В oтличие oт бoльшинства пoгoдных сайтoв мы публикуем пoдрoбную метеoинфoрмацию в детальнoм прoфессиoнальнoм фoрмате.

Характеристики температуры и влажнoсти вoздуха измеряются на высoте 2 м в тени вдали oт зданий и деревьев.
Скoрoсть ветра измеряется на высoте 10 м (на урoвне рoста челoвека скoрoсть ветра ниже в 1.5-2 раза). Если метеoстанция нахoдится в гoрoде или в лесу, тo скoрoсть ветра занижена на 2-4 м/с пo сравнению с oткрытым местoм. Скoрoсть ветра над акватoриями крупных рек и oзёр, а также на вершинах хoлмoв на 2-5 м/с выше, чем в oбычных услoвиях.
Атмoсфернoе давление в разных тoчках местнoсти мoжет значительнo oтличаться oт давления на метеoстанции, в зависимoсти oт услoвий рельефа (при пoдъёме на 10 м давление пoнижается примернo на 1 мм рт.ст.).